Location: ??????
(41.3794°N, 22.5014°E)
Time: 21:17:03
(UTC+00:00)

Cosmos 44 Rocket - Pass Details

Date: 30 November 2020
Orbit: 639 x 751 km, 65.1° (Epoch: 19 January)

Event Time Altitude Azimuth Distance (km) Brightness Sun altitude
Rises 16:56:48 0° 332° (NNW) 3,171 6.9 -21.1°
Reaches altitude 10° 16:59:17 10° 340° (NNW) 2,257 6.0 -21.6°
Enters shadow 17:03:28 40° 29° (NNE) 1,093 4.0 -22.3°
